| time (UTC) | temp C | wind direction | speed KPH | gust KPH | rain 1hr cm | rain 24hr cm | rain mn cm | humidity % | barometer mb |
| 20260505124528 | 6 | 22 | 3.2 | 12.9 | 0.20 | 0.20 | 0.20 | 87 | 1015.9 |
| 20260505123017 | 6 | 258 | 0.0 | 11.3 | 0.18 | 0.18 | 0.18 | 84 | 1017.3 |
| 20260505121522 | 7 | 335 | 3.2 | 12.9 | 0.15 | 0.15 | 0.15 | 84 | 1017.5 |
| 20260505120026 | 7 | 269 | 8.0 | 19.3 | 0.13 | 0.13 | 0.13 | 81 | 1017.1 |
| 20260505114530 | 8 | 272 | 9.7 | 32.2 | 0.00 | 0.00 | 0.00 | 75 | 1017.2 |
| 20260505113024 | 10 | 291 | 8.0 | 29.0 | 0.00 | 0.00 | 0.00 | 68 | 1017.2 |
| 20260505111533 | 10 | 276 | 6.4 | 19.3 | 0.00 | 0.00 | 0.00 | 73 | 1016.9 |
| 20260505101520 | 10 | 275 | 1.6 | 6.4 | 0.00 | 0.00 | 0.00 | 73 | 1016.8 |
| 20260505100039 | 10 | 283 | 3.2 | 11.3 | 0.00 | 0.00 | 0.00 | 73 | 1016.9 |
| 20260505094517 | 10 | 276 | 3.2 | 12.9 | 0.00 | 0.00 | 0.00 | 73 | 1017.0 |
| 20260505093025 | 10 | 298 | 3.2 | 8.0 | 0.00 | 0.00 | 0.00 | 73 | 1016.6 |
| 20260505091538 | 9 | 357 | 1.6 | 6.4 | 0.00 | 0.00 | 0.00 | 74 | 1017.1 |
| 20260505090031 | 8 | 33 | 1.6 | 3.2 | 0.00 | 0.00 | 0.00 | 77 | 1016.9 |
| 20260505084533 | 8 | 21 | 1.6 | 4.8 | 0.00 | 0.00 | 0.00 | 80 | 1016.9 |
| 20260505083039 | 7 | 23 | 0.0 | 1.6 | 0.00 | 0.00 | 0.00 | 82 | 1017.2 |
| 20260505081529 | 7 | 234 | 0.0 | 0.0 | 0.00 | 0.00 | 0.00 | 78 | 1017.6 |
| 20260505080007 | 8 | 234 | 0.0 | 0.0 | 0.00 | 0.00 | 0.00 | 75 | 1017.7 |
| 20260505074514 | 9 | 235 | 0.0 | 3.2 | 0.00 | 0.00 | 0.00 | 73 | 1018.0 |
| 20260505071522 | 10 | 335 | 0.0 | 6.4 | 0.00 | 0.00 | 0.00 | 70 | 1017.8 |
| 20260505070026 | 9 | 115 | 0.0 | 1.6 | 0.00 | 0.00 | 0.00 | 71 | 1017.7 |
| 20260505064504 | 10 | 228 | 0.0 | 1.6 | 0.00 | 0.00 | 0.00 | 68 | 1017.9 |
| 20260505063015 | 10 | 333 | 3.2 | 9.7 | 0.00 | 0.00 | 0.00 | 67 | 1017.7 |
| 20260505061530 | 10 | 320 | 3.2 | 16.1 | 0.00 | 0.00 | 0.00 | 66 | 1017.3 |
| 20260505060004 | 10 | 328 | 3.2 | 8.0 | 0.00 | 0.00 | 0.00 | 65 | 1017.1 |
| 20260505054522 | 10 | 332 | 1.6 | 9.7 | 0.00 | 0.00 | 0.00 | 64 | 1017.5 |
| 20260505053024 | 11 | 23 | 3.2 | 12.9 | 0.00 | 0.00 | 0.00 | 64 | 1018.1 |
| 20260505051510 | 11 | 358 | 3.2 | 6.4 | 0.00 | 0.00 | 0.00 | 63 | 1018.4 |
| 20260505041523 | 11 | 290 | 8.0 | 20.9 | 0.00 | 0.00 | 0.00 | 61 | 1018.2 |
| 20260505040005 | 11 | 304 | 4.8 | 19.3 | 0.00 | 0.00 | 0.00 | 59 | 1018.5 |
| 20260505034518 | 12 | 308 | 4.8 | 20.9 | 0.00 | 0.00 | 0.00 | 57 | 1018.6 |
| 20260505033033 | 12 | 302 | 9.7 | 20.9 | 0.00 | 0.00 | 0.00 | 55 | 1018.6 |
| 20260505031510 | 12 | 342 | 12.9 | 20.9 | 0.00 | 0.00 | 0.00 | 53 | 1018.7 |
| 20260505030022 | 13 | 316 | 11.3 | 33.8 | 0.00 | 0.00 | 0.00 | 47 | 1018.1 |
| 20260505024548 | 13 | 338 | 12.9 | 22.5 | 0.00 | 0.00 | 0.00 | 45 | 1017.9 |
| 20260505023015 | 14 | 250 | 11.3 | 33.8 | 0.00 | 0.00 | 0.00 | 42 | 1017.9 |
| 20260505021541 | 16 | 290 | 12.9 | 24.1 | 0.00 | 0.00 | 0.00 | 34 | 1017.7 |
| 20260505020027 | 16 | 263 | 8.0 | 24.1 | 0.00 | 0.00 | 0.00 | 30 | 1017.3 |
| 20260505014522 | 16 | 266 | 8.0 | 27.4 | 0.00 | 0.00 | 0.00 | 29 | 1017.1 |
| 20260505013025 | 17 | 267 | 8.0 | 19.3 | 0.00 | 0.00 | 0.00 | 28 | 1017.0 |
| 20260505011511 | 17 | 263 | 8.0 | 19.3 | 0.00 | 0.00 | 0.00 | 26 | 1016.7 |
| 20260505010021 | 18 | 288 | 4.8 | 24.1 | 0.00 | 0.00 | 0.00 | 25 | 1016.5 |
| 20260505004536 | 18 | 315 | 9.7 | 24.1 | 0.00 | 0.00 | 0.00 | 24 | 1016.5 |
| 20260505003013 | 19 | 286 | 9.7 | 25.7 | 0.00 | 0.00 | 0.00 | 22 | 1016.2 |
| 20260505001524 | 20 | 254 | 11.3 | 20.9 | 0.00 | 0.00 | 0.00 | 20 | 1016.1 |
| 20260505000025 | 20 | 253 | 16.1 | 25.7 | 0.00 | 0.00 | 0.00 | 20 | 1016.1 |
| 20260504234517 | 20 | 238 | 12.9 | 25.7 | 0.00 | 0.00 | 0.00 | 19 | 1016.5 |
| 20260504233027 | 20 | 279 | 11.3 | 30.6 | 0.00 | 0.00 | 0.00 | 19 | 1016.5 |
| 20260504224525 | 21 | 259 | 14.5 | 27.4 | 0.00 | 0.00 | 0.00 | 19 | 1016.7 |
| 20260504223011 | 21 | 285 | 9.7 | 33.8 | 0.00 | 0.00 | 0.00 | 20 | 1016.7 |
| 20260504221532 | 21 | 257 | 8.0 | 30.6 | 0.00 | 0.00 | 0.00 | 20 | 1016.8 |
| 20260504220026 | 21 | 312 | 9.7 | 27.4 | 0.00 | 0.00 | 0.00 | 19 | 1016.8 |
| 20260504214515 | 21 | 250 | 9.7 | 25.7 | 0.00 | 0.00 | 0.00 | 21 | 1017.1 |
| 20260504213024 | 21 | 252 | 9.7 | 29.0 | 0.00 | 0.00 | 0.00 | 21 | 1017.2 |
| 20260504211529 | 20 | 255 | 8.0 | 24.1 | 0.00 | 0.00 | 0.00 | 22 | 1017.4 |
| 20260504210007 | 20 | 229 | 9.7 | 30.6 | 0.00 | 0.00 | 0.00 | 21 | 1017.6 |
| 20260504204514 | 21 | 283 | 14.5 | 27.4 | 0.00 | 0.00 | 0.00 | 20 | 1017.9 |
| 20260504203007 | 20 | 259 | 17.7 | 27.4 | 0.00 | 0.00 | 0.00 | 20 | 1018.1 |
| 20260504201508 | 20 | 281 | 12.9 | 25.7 | 0.00 | 0.00 | 0.00 | 20 | 1018.3 |
| 20260504200008 | 20 | 236 | 14.5 | 30.6 | 0.00 | 0.00 | 0.00 | 21 | 1018.3 |
| 20260504194508 | 20 | 233 | 14.5 | 27.4 | 0.00 | 0.00 | 0.00 | 20 | 1018.3 |
| 20260504193010 | 20 | 211 | 9.7 | 20.9 | 0.00 | 0.00 | 0.00 | 22 | 1018.3 |
| 20260504191512 | 20 | 270 | 9.7 | 20.9 | 0.00 | 0.00 | 0.00 | 21 | 1018.4 |
| 20260504190008 | 20 | 322 | 4.8 | 29.0 | 0.00 | 0.00 | 0.00 | 21 | 1018.6 |
| 20260504184508 | 20 | 288 | 9.7 | 22.5 | 0.00 | 0.00 | 0.00 | 22 | 1018.9 |
| 20260504183009 | 19 | 282 | 19.3 | 32.2 | 0.00 | 0.00 | 0.00 | 22 | 1018.9 |
| 20260504181508 | 19 | 282 | 9.7 | 20.9 | 0.00 | 0.00 | 0.00 | 25 | 1018.8 |
| 20260504180012 | 18 | 248 | 8.0 | 17.7 | 0.00 | 0.00 | 0.00 | 27 | 1019.1 |
| 20260504174510 | 18 | 245 | 11.3 | 25.7 | 0.00 | 0.00 | 0.00 | 27 | 1019.0 |
| 20260504173011 | 18 | 314 | 9.7 | 19.3 | 0.00 | 0.00 | 0.00 | 29 | 1019.3 |
| 20260504171512 | 17 | 237 | 6.4 | 19.3 | 0.00 | 0.00 | 0.00 | 31 | 1019.5 |